[[{"header":{"parameterUnit":"m.s-1","parameterCategory":1,"la1":30.2991,"la2":30.254,"lo1":-89.0895,"lo2":-89.0444,"dy":0.0017,"dx":0.0017,"nx":28,"ny":28,"refTime":"2025-03-16T09:00:00:Z","depth":0,"parameterNumber":2,"parameterNumberName":"U-component_of_WINDS"},"data":[0,0,0,0,0,0,0,0,0,0,0,0,0,0,0,0,0,0,0,0,0,0,0,0,0,0,0,0,0,0,0,0,0,0,0,0,0,0,0,0,0,0,0,0,0,0,0,0,0,0,0,0,0,0,0,0,0,0,5.0421,5.0421,0,5.0438,5.0438,5.0438,5.0296,5.0292,5.0288,5.0284,5.0308,5.0313,5.0317,0,0,0,0,0,0,0,0,0,0,0,0,0,5.0271,5.0275,5.0421,5.0421,5.0421,5.0438,5.0438,5.0438,5.0296,5.0292,5.0287,5.0282,5.0307,5.0312,5.0317,0,0,0,0,0,0,0,0,0,0,0,0,0,5.0317,5.0276,5.0421,5.0352,5.0346,5.0437,5.0438,5.0438,5.0297,5.0291,5.0285,5.028,5.0305,5.0312,5.0318,5.0478,0,0,5.0338,5.0341,0,0,0,0,0,0,0,0,5.0315,5.0323,5.0362,5.0357,5.035,5.0358,5.0394,5.0452,5.0299,5.0316,5.0284,5.0277,5.033,5.0334,5.0351,5.0479,5.048,5.0339,5.0343,5.0345,5.0347,0,0,0,0,0,0,0,5.0312,5.0322,5.0427,5.0363,5.0356,5.0323,5.0322,5.0404,5.0357,5.0314,5.0304,5.0307,5.0326,5.0345,5.035,5.048,5.0338,5.0344,5.0348,5.0351,5.0739,5.0746,0,0,0,0,0,0,5.0317,5.032,5.0427,5.0428,5.0317,5.033,5.033,5.0362,5.0355,5.0349,5.0313,5.0301,5.0337,5.0343,5.0351,5.0536,5.0345,5.0352,5.0355,5.0733,5.0741,5.0748,0,0,0,0,0,0,5.0314,5.0328,5.0426,5.0371,5.0381,5.0339,5.0376,5.0365,5.0384,5.0354,5.0346,5.034,5.0332,5.0342,5.0447,5.0535,5.0354,5.036,5.0726,5.0735,5.0744,5.0909,0,0,0,0,0,0,5.0311,5.0328,5.0387,5.0373,5.0384,5.0521,5.0381,5.037,5.0395,5.038,5.0378,5.0372,5.0328,5.0438,5.0453,5.0541,5.0366,5.0717,5.073,5.0741,5.0896,5.0923,5.0947,0,0,0,0,0,5.0306,5.0435,5.0391,5.0404,5.0457,5.0526,5.0532,5.0478,5.0403,5.0462,5.0443,5.0372,5.0523,5.045,5.0466,5.0557,5.0712,5.0726,5.074,5.0884,5.0918,5.0946,0,0,0,0,0,0,5.0462,5.0432,5.0382,5.051,5.0521,5.0502,5.0575,5.0515,5.055,5.0535,5.0467,5.0468,5.0585,5.0581,5.05,5.0711,5.0604,5.0623,5.0708,5.074,5.0765,5.0763,5.0371,0,0,0,0,0,5.0511,5.0568,5.0539,5.0654,5.0662,5.0618,5.0646,5.0603,5.0613,5.0618,5.0606,5.062,5.067,5.0705,5.075,5.0895,5.0892,5.0966,5.0991,5.1012,5.1029,5.1104,5.1136,5.0795,5.0795,5.0795,0,0,5.0614,5.0604,5.0644,5.0685,5.0689,5.075,5.0623,5.0694,5.0739,5.0629,5.0726,5.0719,5.073,5.0855,5.091,5.0856,5.1123,5.1031,5.1048,5.1053,5.1122,5.1155,5.1184,5.0805,5.0803,5.0802,0,0,5.0831,5.083,5.0925,5.0931,5.0937,5.0906,5.093,5.0919,5.0908,5.1004,5.0922,5.0977,5.1065,5.1076,5.1093,5.1314,5.125,5.1331,5.1465,5.1539,5.1566,5.159,5.1668,5.1696,5.1348,5.1349,5.1349,0,5.0959,5.1046,5.0982,5.1058,5.1078,5.0979,5.1075,5.1085,5.1107,5.1124,5.1063,5.117,5.1171,5.1297,5.1351,5.1369,5.1393,5.1331,5.1567,5.159,5.1611,5.1685,5.1714,5.1358,5.1357,5.1356,5.1355,0,5.1201,5.1264,5.134,5.136,5.139,5.1476,5.1427,5.1465,5.1419,5.1396,5.1495,5.1492,5.1534,5.1561,5.1519,5.1681,5.1647,5.1578,5.147,5.1654,5.1722,5.175,5.1372,5.1369,5.1366,5.1363,0,0,5.1519,5.1501,5.153,5.1538,5.1537,5.1584,5.1667,5.1705,5.1738,5.1757,5.1824,5.1901,5.1836,5.1855,5.1813,5.1879,5.2052,5.1801,5.18,5.1847,5.2231,5.2282,5.2316,5.201,5.2015,5.2019,5.2229,0,5.173,5.1866,5.1811,5.1953,5.2009,5.1915,5.1986,5.1995,5.1975,5.2021,5.2001,5.2055,5.1966,5.1977,5.2037,5.2019,5.2129,5.2003,5.2073,5.2076,5.2071,5.2351,5.2406,5.2605,5.2255,5.226,5.2263,0,5.1995,5.2021,5.2168,5.2155,5.2177,5.2242,5.2272,5.2317,5.2324,5.2306,5.2327,5.227,5.2351,5.2243,5.2353,5.2269,5.2294,5.229,5.2296,5.23,5.218,5.2362,5.2667,5.2696,5.2305,5.2301,5.2298,0,5.221,5.2283,5.2379,5.2389,5.2377,5.2424,5.2422,5.2423,5.245,5.2477,5.2493,5.2531,5.2552,5.2583,5.2537,5.2463,5.2654,5.2543,5.2641,5.2643,5.2685,5.2683,5.2998,5.2704,5.2704,5.2703,5.2702,0,5.2452,5.2545,5.2475,5.2535,5.2637,5.2573,5.2677,5.2664,5.2666,5.2722,5.2644,5.27,5.2637,5.2686,5.2652,5.2748,5.2759,5.2746,5.2736,5.2753,5.2754,5.2768,5.2753,5.2711,5.2709,5.2708,5.2706,0,5.2709,5.2666,5.2765,5.2745,5.2742,5.2818,5.2802,5.2857,5.2831,5.2903,5.2917,5.2878,5.2932,5.2889,5.2944,5.292,5.3047,5.3018,5.3044,5.3035,5.3135,5.3126,5.3469,5.351,5.3191,5.3195,5.3197,0,5.2866,5.2935,5.2922,5.2952,5.2954,5.3006,5.3031,5.2971,5.3002,5.3014,5.3068,5.3115,5.3149,5.324,5.3217,5.3258,5.3228,5.3345,5.3234,5.3248,5.3229,5.3225,5.3231,5.3368,5.3372,5.3375,5.3378,0,5.3148,5.3123,5.3161,5.3193,5.3224,5.3247,5.3263,5.3294,5.3233,5.3271,5.3323,5.335,5.3403,5.3451,5.3483,5.3482,5.3421,5.3413,5.3437,5.3455,5.3466,5.346,5.3104,5.3405,5.3402,5.34,5.3399,5.3398,5.3359,5.3416,5.3414,5.346,5.3465,5.3482,5.3531,5.3511,5.3553,5.359,5.3553,5.3617,5.3622,5.3658,5.3665,5.3715,5.3666,5.3703,5.3712,5.3721,5.3735,5.3459,5.3721,5.372,5.3719,5.3718,5.3718,0,5.3636,5.363,5.3672,5.3696,5.3732,5.3668,5.3683,5.3717,5.3773,5.3782,5.3816,5.3877,5.3922,5.3902,5.3942,5.3986,5.3958,5.3998,5.3994,5.3995,5.3776,5.375,5.4019,5.4019,5.4019,5.4019,5.4019,5.4019,5.3785,5.3876,5.3851,5.3944,5.3938,5.3998,5.4011,5.4026,5.4032,5.4102,5.4139,5.4124,5.4122,5.416,5.4199,5.4192,5.421,5.426,5.4244,5.404,5.401,5.3982,5.3957,5.4265,5.4265,5.4457,5.4459,5.446]},{"header":{"parameterUnit":"m.s-1","parameterCategory":1,"la1":30.2991,"la2":30.254,"lo1":-89.0895,"lo2":-89.0444,"dy":0.0017,"dx":0.0017,"nx":28,"ny":28,"refTime":"2025-03-16T09:00:00:Z","depth":0,"parameterNumber":3,"parameterNumberName":"V-component_of_WINDS"},"data":[0,0,0,0,0,0,0,0,0,0,0,0,0,0,0,0,0,0,0,0,0,0,0,0,0,0,0,0,0,0,0,0,0,0,0,0,0,0,0,0,0,0,0,0,0,0,0,0,0,0,0,0,0,0,0,0,0,0,2.568,2.5682,0,2.5861,2.5864,2.5866,2.5899,2.5897,2.5896,2.5894,2.6079,2.6085,2.6091,0,0,0,0,0,0,0,0,0,0,0,0,0,2.536,2.5366,2.568,2.5682,2.5685,2.5861,2.5864,2.5866,2.5899,2.5897,2.5895,2.5894,2.6077,2.6084,2.6092,0,0,0,0,0,0,0,0,0,0,0,0,0,2.5516,2.5367,2.568,2.5722,2.5728,2.5861,2.5864,2.5867,2.5899,2.5897,2.5895,2.5893,2.6074,2.6083,2.6093,2.6195,0,0,2.6121,2.6125,0,0,0,0,0,0,0,0,2.5507,2.5527,2.5714,2.572,2.5726,2.5855,2.5818,2.5977,2.59,2.5834,2.5894,2.5892,2.6006,2.6021,2.606,2.6204,2.6212,2.6122,2.6128,2.6132,2.6135,0,0,0,0,0,0,0,2.5496,2.552,2.5752,2.5716,2.5724,2.5732,2.5751,2.5849,2.593,2.584,2.5843,2.5864,2.6009,2.6051,2.6064,2.6214,2.6122,2.613,2.6136,2.614,2.645,2.6452,0,0,0,0,0,0,2.5478,2.5511,2.5746,2.5757,2.5609,2.5739,2.5761,2.5816,2.5929,2.5945,2.5865,2.5865,2.6036,2.6053,2.6071,2.6198,2.6132,2.6141,2.6146,2.6447,2.645,2.6453,0,0,0,0,0,0,2.5471,2.5499,2.5739,2.5635,2.5666,2.5747,2.5808,2.5821,2.5863,2.5949,2.5963,2.5893,2.6035,2.6058,2.6164,2.6205,2.6145,2.6154,2.6444,2.6448,2.6452,2.6453,0,0,0,0,0,0,2.5462,2.5496,2.5537,2.5636,2.5671,2.583,2.5811,2.5826,2.5879,2.5879,2.5979,2.5993,2.6035,2.6149,2.6173,2.6217,2.6161,2.6441,2.6446,2.645,2.6449,2.6456,2.6462,0,0,0,0,0,2.545,2.553,2.5538,2.5567,2.5724,2.5832,2.5852,2.5899,2.5882,2.5923,2.5978,2.599,2.6196,2.616,2.6187,2.6234,2.6439,2.6444,2.645,2.6447,2.6455,2.6462,0,0,0,0,0,0,2.5434,2.5544,2.5555,2.5669,2.5741,2.5837,2.5891,2.5907,2.5985,2.5982,2.6036,2.6058,2.6161,2.6208,2.6166,2.6338,2.6316,2.6327,2.6304,2.6313,2.6319,2.6306,2.6169,0,0,0,0,0,2.5443,2.5522,2.5614,2.5706,2.5741,2.5809,2.5858,2.5888,2.5964,2.5995,2.6058,2.6131,2.6212,2.6265,2.6345,2.6456,2.6477,2.6501,2.6507,2.6512,2.6521,2.6582,2.6594,2.6472,2.6472,2.6472,0,0,2.5464,2.5534,2.5581,2.5704,2.5763,2.5843,2.5835,2.592,2.598,2.6008,2.6112,2.616,2.6245,2.6354,2.6405,2.6396,2.6559,2.6519,2.6522,2.653,2.6589,2.6601,2.6611,2.6476,2.6475,2.6475,0,0,2.5543,2.5604,2.5687,2.5746,2.5836,2.588,2.59,2.5994,2.6027,2.6132,2.6155,2.6225,2.6364,2.6424,2.6472,2.6571,2.6584,2.6595,2.6628,2.6687,2.6696,2.6705,2.674,2.6752,2.6604,2.6604,2.6604,0,2.5558,2.568,2.5727,2.5812,2.5865,2.5893,2.5977,2.6032,2.6142,2.6178,2.6166,2.634,2.64,2.6522,2.6546,2.6584,2.6608,2.6585,2.6691,2.6701,2.6709,2.6743,2.6756,2.6605,2.6605,2.6605,2.6605,0,2.5693,2.5777,2.5833,2.5939,2.5998,2.6082,2.6141,2.6195,2.6218,2.6263,2.6369,2.6441,2.6535,2.6566,2.659,2.6691,2.6683,2.668,2.666,2.6721,2.6753,2.6767,2.6606,2.6606,2.6605,2.6605,0,0,2.5769,2.5899,2.5919,2.5967,2.6067,2.6132,2.6215,2.6308,2.6352,2.6427,2.6498,2.6614,2.6612,2.6666,2.6697,2.6748,2.6821,2.674,2.6742,2.6752,2.6935,2.6937,2.6951,2.6829,2.6832,2.6834,2.6928,0,2.586,2.6012,2.6056,2.6182,2.626,2.6287,2.6359,2.6427,2.6471,2.6542,2.659,2.6671,2.6663,2.6696,2.6748,2.6801,2.6858,2.6794,2.6895,2.6898,2.6874,2.6968,2.6971,2.7057,2.6941,2.6943,2.6945,0,2.5987,2.6064,2.6199,2.6287,2.6321,2.6386,2.6473,2.6541,2.6618,2.6646,2.6706,2.6731,2.6818,2.6791,2.691,2.6866,2.6909,2.6941,2.6945,2.6957,2.6926,2.6983,2.7085,2.7098,2.6966,2.6964,2.6963,0,2.6029,2.6166,2.6264,2.6304,2.641,2.6454,2.65,2.6575,2.6627,2.6702,2.6736,2.682,2.6867,2.693,2.6977,2.6953,2.7092,2.7069,2.7117,2.7116,2.7146,2.7144,2.7257,2.7173,2.7173,2.7173,2.7172,0,2.6127,2.6208,2.6284,2.6345,2.6436,2.6484,2.6573,2.662,2.6686,2.6755,2.6782,2.6846,2.6904,2.6975,2.7011,2.7104,2.7125,2.7149,2.7158,2.7147,2.7144,2.7177,2.7172,2.7176,2.7175,2.7175,2.7174,0,2.619,2.6244,2.6352,2.6443,2.6467,2.653,2.6608,2.6666,2.671,2.6797,2.682,2.6888,2.6973,2.7025,2.7133,2.7158,2.7259,2.7266,2.7234,2.7238,2.7283,2.7278,2.7422,2.7443,2.7344,2.7345,2.7346,0,2.6249,2.6312,2.6409,2.6457,2.6503,2.6581,2.6634,2.6683,2.6737,2.6828,2.6875,2.6962,2.7034,2.7168,2.7226,2.7308,2.7317,2.7362,2.733,2.7316,2.7318,2.7314,2.732,2.7367,2.7368,2.7369,2.7369,0,2.6348,2.6371,2.6447,2.6531,2.6593,2.6662,2.6731,2.6768,2.6829,2.6887,2.6975,2.703,2.714,2.7225,2.7311,2.7357,2.7373,2.7379,2.7394,2.7384,2.7363,2.7375,2.7249,2.7376,2.7375,2.7375,2.7374,2.7374,2.6411,2.6468,2.6545,2.6627,2.6684,2.6747,2.6806,2.6857,2.693,2.7024,2.7048,2.7139,2.7212,2.733,2.7377,2.7448,2.7441,2.7464,2.747,2.7474,2.7475,2.735,2.7464,2.7463,2.7463,2.7463,2.7463,0,2.6511,2.6562,2.6637,2.6732,2.6796,2.6806,2.6881,2.6934,2.7014,2.7081,2.7151,2.725,2.7332,2.7396,2.748,2.7524,2.7534,2.7545,2.7542,2.7552,2.7476,2.7455,2.7536,2.7536,2.7536,2.7536,2.7536,2.7536,2.6571,2.6668,2.67,2.6823,2.6873,2.6963,2.7005,2.7062,2.7116,2.7226,2.7294,2.7335,2.7401,2.7489,2.7564,2.7581,2.761,2.762,2.7638,2.7566,2.7558,2.755,2.753,2.7626,2.7626,2.7708,2.7709,2.7709]}]]